Skip Page Navigation
NASA JPL Caltech
NASA Logo - Jet Propulsion Laboratory + View the NASA Portal
+ Center for Near-Earth Object Studies
JPL Home Earth Solar System Stars & Galaxies Technology
JPL Solar System Dynamics
BODIES ORBITS EPHEMERIDES TOOLS PHYSICAL DATA DISCOVERY FAQ SITE MAP
IMPORTANT: The SSD Announcement email list is now available. Major changes are coming in the near future, including possible hostname and/or URL changes. To be notified of such changes, subscribe to this email list.

Please visit this page for more details.


JPL Small-Body Database Browser
Search: [ help ]  
160307 (2003 GA6)
Classification: Main-belt Asteroid          SPK-ID: 2160307
Ephemeris | Orbit Diagram | Orbital Elements | Mission Design | Physical Parameters | Discovery Circumstances | Close-Approach Data ]

[ show orbit diagram ]
Orbital Elements at Epoch 2458600.5 (2019-Apr-27.0) TDB
Reference: JPL 14 (heliocentric ecliptic J2000)
 Element Value Uncertainty (1-sigma)   Units 
e .1626544965645532 4.3692e-08  
a 2.353882059063472 1.2409e-08 au
q 1.971012557774169 1.0103e-07 au
i 3.29950136477796 4.8305e-06 deg
node 63.10845820480007 8.6373e-05 deg
peri 191.0212978619017 8.7913e-05 deg
M 126.1919897722067 1.6395e-05 deg
tp 2458138.113908003733
(2018-Jan-19.61390800)
5.8667e-05 TDB
period 1319.093180313083
3.61
1.0431e-05
2.856e-08
d
yr
n .2729147609682547 2.1581e-09 deg/d
Q 2.736751560352776 1.4427e-08 au
  Orbit Determination Parameters
   # obs. used (total)      432  
   data-arc span      6643 days (18.19 yr)  
   first obs. used      2000-08-29  
   last obs. used      2018-11-06  
   planetary ephem.      DE431  
   SB-pert. ephem.      SB431-N16  
   condition code      0  
   norm. resid. RMS      .62278  
   source      ORB  
   producer      Otto Matic  
   solution date      2019-Jul-13 11:48:23  

Additional Information
 Earth MOID = .956236 au 
 Jupiter MOID = 2.30542 au 
 T_jup = 3.536 
[ show covariance matrix ]

Ephemeris | Orbit Diagram | Orbital Elements | Mission Design | Physical Parameters | Discovery Circumstances | Close-Approach Data ]

Physical Parameter Table
Parameter Symbol Value Units Sigma Reference Notes
absolute magnitude H 16.4   n/a MPO454060  

160307 (2003 GA6)          Discovered 2003-Apr-01 by LINEAR at Socorro
Reference: 20070730/Numbers.arcLast Updated: 2007-08-06

[ show close-approach data ]
Ephemeris | Orbit Diagram | Orbital Elements | Mission Design | Physical Parameters | Discovery Circumstances | Close-Approach Data ]
ABOUT SSD CREDITS/AWARDS PRIVACY/COPYRIGHT GLOSSARY LINKS
FirstGov
(server date/time)  
NASA Home Page
Site Manager:   Ryan S. Park
Webmaster  Alan B. Chamberlin